Location: *
(38.3324°S, 79.7275°E)
Time: 11:51:02
(UTC+00:00)

Daily predictions for brighter satellites

Satellite Brightness Start Highest point End
(mag) Time Altitude Azimuth Time Altitude Azimuth Time Altitude Azimuth
Cosmos 2173 Rocket 4.2 12:07:36 10° NNE 12:13:26 50° E 12:19:22 10° SSE
CZ-2C R/B 2.6 12:09:53 10° NNE 12:15:02 64° ESE 12:20:21 10° S
Cosmos 1455 Rocket 3.4 12:12:47 10° NNW 12:17:07 72° W 12:21:32 10° S
Cosmos 1503 Rocket 4.4 12:12:17 10° N 12:17:09 43° ENE 12:22:04 10° SSE
Cosmos 1544 Rocket 3.6 12:13:30 10° N 12:17:50 66° E 12:22:16 10° SSE
Cosmos 1908 3.8 12:14:14 10° NNW 12:18:05 63° W 12:22:02 10° S
Okean 1-7 Rocket 3.7 12:14:06 10° S 12:18:34 57° E 12:22:55 10° NNE
ATLAS 2AS CENTAUR R/B 3.1 12:17:11 10° SW 12:24:12 76° WNW 12:31:43 10° NNE
Cosmos 1602 Rocket 4.4 12:21:58 10° SSE 12:25:58 29° ESE 12:29:54 10° NE
X-37B 2.2 12:24:14 10° NNW 12:26:51 23° NE 12:29:20 11° E
Cosmos 2016 Rocket 4.4 12:21:37 10° NNE 12:27:34 43° E 12:33:33 10° SSE
SJ-7 4.4 12:24:28 10° SSE 12:28:33 88° ENE 12:32:33 10° NNW
H-2A R/B 2.8 12:29:15 10° N 12:33:44 61° WNW 12:38:15 10° SSW
USA 81 4.5 12:29:17 10° NNW 12:34:34 69° W 12:39:55 10° S
SMAP 3.4 12:31:49 10° SSE 12:36:20 43° E 12:40:47 10° N
Cosmos 1703 3.8 12:33:13 10° SSW 12:37:14 65° W 12:41:11 10° N
FALCON 9 DEB 4.1 12:35:55 10° N 12:38:37 27° NE 12:40:20 16° E
SJ 16-02 3.0 12:37:30 10° NE 12:39:54 14° E 12:40:36 14° E
deb Chang Zheng 4 3.8 12:38:45 10° SSE 12:42:52 45° E 12:46:57 10° N
Cosmos 1943 Rocket 3.4 12:39:18 10° NNE 12:43:23 21° E 12:46:04 15° ESE
Cosmos 2346 Rocket 4.5 12:38:36 10° S 12:44:45 61° E 12:50:54 10° NNE
Haruka 4.5 12:42:22 10° NNW 12:44:51 16° NNE 12:47:07 10° ENE
Cosmos 405 Rocket 3.8 12:44:02 10° SSE 12:47:04 23° ESE 12:50:04 10° NE
Cosmos 2061 Rocket 4.0 12:45:44 10° N 12:51:50 62° E 12:58:04 10° SSE
Cosmos 1802 Rocket 4.0 12:45:44 10° N 12:52:01 82° E 12:58:18 10° S
H-2A R/B 3.3 12:51:59 15° SE 12:55:00 23° E 12:59:16 10° NE
Cosmos 1455 3.9 12:53:36 10° NE 12:55:06 16° ENE 12:55:06 16° ENE
Cosmos 2082 Rocket 2.4 12:51:55 10° S 12:57:23 46° ESE 13:02:46 10° NE
Cosmos 2100 Rocket 4.5 12:52:23 10° NNW 12:58:29 65° W 13:04:46 10° S
Lacrosse 5 4.0 12:57:35 10° S 12:59:15 11° SSE 13:00:33 10° SSE
Meteor 2-10 Rocket 3.9 12:53:45 10° NNE 12:59:21 52° E 13:05:04 10° SSE
DMSP B5D2-2 4.0 12:54:33 10° NNE 12:59:49 83° ESE 13:05:11 10° S
Cosmos 1833 Rocket 2.8 12:54:29 10° SSW 13:00:12 81° WNW 13:05:51 10° NNE
Cosmos 724 4.2 12:54:53 10° NNW 13:00:37 73° ENE 13:05:50 13° SE
FALCON 9 DEB 3.2 13:00:46 10° NNW 13:03:47 48° NE 13:04:36 37° E
CZ-2D R/B 3.9 13:02:25 23° SE 13:04:08 34° E 13:07:41 10° NNE
Tsikada Rocket 4.1 12:59:39 10° S 13:05:43 50° E 13:11:40 10° NNE
SeaSat 1 4.0 13:02:05 10° S 13:06:33 34° WSW 13:10:58 10° WNW
Meteor 1-11 4.3 13:01:11 10° S 13:06:53 85° W 13:12:29 10° N
Cosmos 1725 Rocket 4.0 13:01:46 10° N 13:08:06 79° E 13:14:29 10° S
Cosmos 1939 Rocket 2.7 13:04:12 10° SSE 13:08:10 81° ENE 13:12:08 10° N
Iridium 2 3.5 13:05:40 10° S 13:09:29 80° E 13:13:15 10° N
Cosmos 389 Rocket 2.7 13:07:34 10° NNW 13:11:07 71° W 13:14:41 10° S
RESURS DK-1 2.3 13:07:04 10° SSW 13:11:13 59° ESE 13:15:19 10° NE
Cosmos 2278 Rocket 3.5 13:10:51 10° NW 13:16:07 38° WSW 13:21:27 10° S
CZ-4B R/B 3.3 13:12:23 10° SSE 13:18:01 55° E 13:23:33 10° N
CZ-4B R/B 3.5 13:15:44 10° NNW 13:18:36 28° W 13:21:27 10° SW
Cosmos 1825 Rocket 3.8 13:14:56 10° S 13:19:17 45° E 13:23:32 10° NNE
FALCON 9 DEB 3.0 13:19:22 10° NW 13:22:21 57° NNE 13:22:21 57° NNE
COSMOS 2406 4.0 13:20:22 10° SSW 13:25:57 54° WNW 13:31:27 10° N
Cosmos 1726 Rocket 3.6 13:24:12 10° N 13:28:26 52° E 13:29:11 46° ESE
Cosmos 2233 Rocket 3.9 13:23:46 10° N 13:30:04 76° E 13:36:25 10° S
Cosmos 2228 3.1 13:30:26 10° N 13:34:41 77° W 13:38:37 13° S
FALCON 9 DEB 3.4 13:33:38 10° NW 13:36:12 56° NW 13:36:12 56° NW
PAYLOAD B 4.5 13:31:32 10° S 13:37:08 71° WSW 13:42:42 10° NNW
Okean O Rocket 1.4 13:38:26 38° SSE 13:40:08 82° ENE 13:44:30 10° N
GPS 2-04 Rocket1 4.2 13:38:08 10° NW 13:40:25 23° N 13:40:25 23° N
Feng Yun 1-1 Rocket 4.5 13:52:02 51° ENE 13:52:02 51° ENE 13:57:14 10° N
CZ-2C R/B 4.4 13:46:31 10° S 13:52:03 43° WSW 13:57:24 10° NW
Cosmos 1892 3.1 13:48:34 10° SSW 13:52:29 63° W 13:56:19 10° N
Cosmos 1606 Rocket 4.3 13:54:06 10° NNW 13:58:22 52° W 14:00:57 23° SSW
BREEZE M DEB (TANK) 4.3 13:54:08 10° NW 13:59:09 72° NE 14:06:59 32° ESE
Cosmos 2297 3.9 13:53:57 10° NNW 13:59:42 71° WSW 14:02:19 34° S
H-2A R/B 2.9 14:00:39 60° NNW 14:00:39 60° NNW 14:04:10 10° NNW
X-37B 3.0 14:00:10 10° W 14:01:38 24° W 14:01:38 24° W
Spot 2 4.5 14:04:43 58° NW 14:04:43 58° NW 14:08:22 10° NNW
Cosmos 2369 Rocket 3.3 14:02:35 10° N 14:05:33 31° NNE 14:05:33 31° NNE
SJ 16-02 2.4 14:13:45 10° NW 14:17:41 44° W 14:17:41 44° W
Cosmos 1943 Rocket 2.9 14:21:09 10° NW 14:26:40 51° WSW 14:27:40 46° SSW
H-2A R/B 3.2 14:32:35 32° SSW 14:34:33 44° WSW 14:39:42 10° NW
Cosmos 2082 Rocket 4.4 14:36:47 10° SW 14:41:05 23° W 14:45:21 10° NNW
Lacrosse 5 4.4 14:39:06 10° SSW 14:39:46 13° SSW 14:39:46 13° SSW
BREEZE M DEB (TANK) 4.5 14:51:46 10° SW 15:34:39 - NE 14:56:35 71° S
ATLAS 5 CENTAUR R/B 3.3 22:34:51 53° ESE 22:34:51 53° ESE 22:40:22 10° SE
NOSS 3-1 (A) 4.3 22:38:59 65° SSE 22:38:59 65° SSE 22:45:30 10° SSE
SJ 16-02 4.2 22:46:29 12° SE 22:47:43 13° ESE 22:49:49 10° E
Cosmos 2369 Rocket 4.4 22:59:09 12° S 23:02:55 21° SE 23:07:08 10° ENE
ISS -0.6 23:20:01 11° SE 23:20:01 11° SE 23:20:13 10° SE
Cosmos 1943 Rocket 2.7 23:18:56 39° S 23:20:45 55° ESE 23:26:12 10° NE
Cosmos 2084 Rocket 4.3 23:22:03 55° ENE 23:22:08 55° ENE 23:26:49 10° SE
BREEZE-M TANK 4.0 23:23:58 45° SSW 23:25:01 51° SSE 23:39:03 10° E
Cosmos 1300 4.2 23:26:53 34° ESE 23:27:25 35° ESE 23:30:57 10° NE
SL-16 R/B 3.1 23:34:09 34° S 23:34:09 34° S 23:37:38 10° SSE
SMAP 4.5 23:33:21 10° NE 23:37:39 37° ESE 23:41:59 10° S
Lacrosse 4 Rocket 2.6 23:38:23 31° S 23:39:58 44° ESE 23:44:14 10° NE
USA 234 3.8 23:43:20 10° SSE 23:49:16 37° SSW 23:50:11 35° SW
Cosmos 1802 Rocket 4.4 23:44:28 10° S 23:50:39 64° E 23:56:47 10° NNE
Cosmos 1939 Rocket 4.4 23:48:46 10° NE 23:52:22 34° ESE 23:55:59 10° S
